Location: Agadir Irigdalene
(31.2522°N, 8.7797°W)
Time: 06:41:42
(UTC+00:00)

Envisat - Pass Details

Date: 01 December 2020
Orbit: 764 x 766 km, 98.1° (Epoch: 25 January)

Event Time Altitude Azimuth Distance (km) Brightness Sun altitude
Rises 18:10:37 0° 181° (S) 3,215 6.5 -8.4°
Reaches altitude 10° 18:12:59 10° 187° (S) 2,293 5.9 -8.9°
Maximum altitude 18:17:50 46° 260° (W) 1,018 4.2 -9.9°
Drops below altitude 10° 18:22:43 10° 334° (NNW) 2,306 5.6 -10.8°
Sets 18:25:07 0° 340° (NNW) 3,236 6.3 -11.3°
